Hourly Weather Roundup
Issued by NWS Central Illinois

Home | Current Version | Previous Version | Text Only | Print | Product List | Glossary On
Versions: 1 2 3 4 5 6 7 8 9 10 11 12 13 14 15 16 17 18 19 20 21 22 23 24 25 26 27 28 29 30 31 32 33 34 35 36 37 38 39 40 41 42 43 44 45 46 47 48 49 50
000
NZUS43 KILX 241010
HWRILX

AREA WEATHER ROUNDUP
NATIONAL WEATHER SERVICE, LINCOLN IL
500 AM CDT SUN JUL 24 2016


CITY           SKY/WX    TMP DP  RH WIND       PRES   REMARKS
BLOOMINGTON    NOT AVBL
CHAMPAIGN      PTCLDY    75  73  93 SE7       29.95F FOG
DANVILLE       CLOUDY    73  73  99 E6        29.94S
DECATUR        PTCLDY    78  74  87 S7        29.94S HX  81
EFFINGHAM      CLEAR     73  73 100 CALM      29.97R FOG
FLORA          FOG       74  73  97 CALM      29.95R VSB 3/4
GALESBURG      PTCLDY    77  74  91 S8        29.89S
JACKSONVILLE   PTCLDY    78  75  90 S6        29.91S HX  80
LACON          CLEAR     77  74  91 S6        29.90R
LAWRENCEVILLE  CLEAR     75  75 100 CALM      29.95F FOG
LITCHFIELD     MOCLDY    74  72  93 S3        29.94S FOG
$$


CITY           SKY/WX    TMP DP  RH WIND       PRES   REMARKS
LINCOLN        CLEAR     76  76 100 S3        29.93S FOG
MACOMB         CLEAR     77  75  93 S8        29.91S
MATTOON        CLOUDY    74  73  97 SE5       29.95S FOG
MT CARMEL AP   CLEAR     74  73  95 E3        29.95F FOG
OLNEY-NOBLE AP DRIZZLE   73  73 100 CALM      29.95S
PARIS          FOG       73  73 100 CALM      29.97S VSB 1/2
PEORIA         CLEAR     78  76  93 S8        29.91S HX  81
PONTIAC        CLEAR     74  74 100 SE6       29.93S
RANTOUL        NOT AVBL
ROBINSON       FOG       72  72 100 CALM      29.96S VSB 1/2
SPRINGFIELD    PTCLDY    79  75  87 S5        29.92S HX  83
TAYLORVILLE    CLOUDY    75  74  98 NW3       29.94S FOG
$$

...REGIONAL REPORTS...


CITY           SKY/WX    TMP DP  RH WIND       PRES   REMARKS
CHICAGO O`HARE MOCLDY    71  69  93 S6        29.91R
KANKAKEE       NOT AVBL
MOLINE         CLEAR     81  75  82 S12       29.85F HX  87
MOUNT STERLING PTCLDY    77  75  93 S5        29.90S
MOUNT VERNON   PTCLDY    73  68  83 CALM      29.94F
PITTSFIELD     PTCLDY    79  76  90 S5        29.92S HX  83
QUINCY         CLOUDY    79  75  87 S7        29.90S HX  83
ROCKFORD       CLEAR     74  69  85 S5        29.89F
$$


CITY           SKY/WX    TMP DP  RH WIND       PRES   REMARKS
BURLINGTON     CLEAR     78  76  93 S8        29.88S HX  81
CEDAR RAPIDS   PTCLDY    79  79 100 S8        29.83F HX  84
DES MOINES     MOCLDY    81  75  82 SW7       29.82S HX  87
KIRKSVILLE     CLEAR     78  75  90 S7        29.90S HX  81
OTTUMWA        CLEAR     78  74  87 S8        29.85S HX  81
ST LOUIS       MOCLDY    82  74  76 S7        29.92F HX  88
$$


CITY           SKY/WX    TMP DP  RH WIND       PRES   REMARKS
TERRE HAUTE    CLOUDY    75  73  93 CALM      29.97R FOG
EVANSVILLE     CLEAR     77  75  93 CALM      29.95S FOG
INDIANAPOLIS   MOCLDY    78  73  84 E7        29.99S HX  81
LAFAYETTE      MOCLDY    70  69  97 CALM      29.96S
MADISON        PTCLDY    72  70  93 S7        29.84F
MILWAUKEE      PTCLDY    73  69  87 SW12      29.85F
$$






USA.gov is the U.S. government's official web portal to all federal, state and local government web resources and services.